Date String (YYYY-MM-DD hh:mm:ss) UTC,Instrument flags,Ambient pressure (hPa),Sample flow (lpm),Bypass flow (lpm),Sample temperature (°C),Ambient temperature (°C),ASC tube jacket temperature (°C),LED temperature (°C),Box temperature (°C),Sample RH (%),Span deviation,Mass concentration (μg/m³),Mass concentration (μg/m³),Mass concentration (μg/m³)
DateTimeUTC,F1_M11,P_M11,Q1_M11,Q2_M11,T1_M11,T2_M11,T3_M11,T4_M11,T5_M11,U1_M11,ZSPAN_M11,X0_M11,X2_M11,X1_M11
2021-10-18 15:00:00,,0822.4,5.01,0.00,29.7,28.8,00.0,38.8,31.4,10.8,0000.0,0008.18,0003.13,0002.16
2021-10-18 15:01:00,,0822.4,5.00,0.00,29.7,28.7,00.0,38.8,31.4,10.5,0000.0,0008.10,0003.14,0002.17
2021-10-18 15:02:00,,0822.4,5.00,0.00,29.7,28.7,00.0,38.8,31.4,10.2,0000.0,0008.24,0003.16,0002.21
2021-10-18 15:03:00,,0822.4,4.99,0.00,29.7,28.7,00.0,38.8,31.4,10.2,0000.0,0008.54,0003.19,0002.24
2021-10-18 15:04:00,,0822.4,5.00,0.00,29.7,28.8,00.0,38.8,31.5,10.2,0000.0,0008.38,0003.24,0002.29
2021-10-18 15:05:00,,0822.4,5.01,0.00,29.7,28.8,00.0,38.8,31.4,10.2,0000.0,0007.78,0003.26,0002.34
2021-10-18 15:06:00,,0822.3,5.00,0.00,29.7,28.8,00.0,38.8,31.5,10.2,0000.0,0007.34,0003.26,0002.37
2021-10-18 15:07:00,,0822.4,5.00,0.00,29.7,28.8,00.0,38.8,31.5,10.2,0000.0,0007.48,0003.33,0002.43
2021-10-18 15:08:00,,0822.4,5.00,0.00,29.8,28.8,00.0,38.8,31.5,10.2,0000.0,0007.59,0003.37,0002.51
2021-10-18 15:09:00,,0822.4,5.01,0.00,29.8,28.8,00.0,38.8,31.5,10.2,0000.0,0007.60,0003.42,0002.58
2021-10-18 15:10:00,,0822.4,5.01,0.00,29.8,28.8,00.0,38.8,31.5,10.2,0000.0,0007.65,0003.50,0002.66
2021-10-18 15:11:00,,0822.3,5.00,0.00,29.8,28.8,00.0,38.8,31.5,10.1,0000.0,0007.62,0003.53,0002.72
2021-10-18 15:12:00,,0822.4,5.02,0.00,29.8,28.9,00.0,38.8,31.5,10.1,0000.0,0007.59,0003.55,0002.77
2021-10-18 15:13:00,,0822.4,5.00,0.00,29.8,28.9,00.0,38.9,31.5,10.3,0000.0,0007.49,0003.56,0002.79
2021-10-18 15:14:00,,0822.4,4.99,0.00,29.8,28.9,00.0,38.9,31.5,10.5,0000.0,0007.38,0003.57,0002.79
2021-10-18 15:15:00,,0822.3,5.01,0.00,29.8,28.9,00.0,38.9,31.5,11.1,0000.0,0007.25,0003.57,0002.77
2021-10-18 15:16:00,,0822.3,4.99,0.00,29.8,28.9,00.0,38.9,31.5,11.0,0000.0,0007.23,0003.55,0002.74
2021-10-18 15:17:00,,0822.4,5.00,0.00,29.8,28.9,00.0,38.9,31.5,10.7,0000.0,0007.28,0003.54,0002.72
2021-10-18 15:18:00,,0822.3,4.99,0.00,29.8,28.9,00.0,38.9,31.5,10.5,0000.0,0006.90,0003.51,0002.69
2021-10-18 15:19:00,,0822.4,5.01,0.00,29.8,28.9,00.0,38.9,31.5,10.4,0000.0,0006.58,0003.49,0002.64
2021-10-18 15:20:00,,0822.3,5.01,0.00,29.8,28.9,00.0,38.9,31.6,10.7,0000.0,0007.10,0003.51,0002.59
2021-10-18 15:21:00,,0822.4,4.99,0.00,29.8,28.9,00.0,38.9,31.6,11.4,0000.0,0007.08,0003.47,0002.51
2021-10-18 15:22:00,,0822.4,5.00,0.00,29.8,28.9,00.0,38.9,31.6,13.0,0000.0,0007.20,0003.43,0002.44
2021-10-18 15:23:00,,0822.4,5.00,0.00,29.8,28.9,00.0,38.9,31.6,12.9,0000.0,0007.20,0003.40,0002.36
2021-10-18 15:24:00,,0822.3,5.00,0.00,29.8,28.9,00.0,38.9,31.6,12.1,0000.0,0007.27,0003.41,0002.31
2021-10-18 15:25:00,,0822.4,5.01,0.00,29.8,28.9,00.0,38.9,31.6,11.9,0000.0,0007.21,0003.39,0002.27
2021-10-18 15:26:00,,0822.4,4.99,0.00,29.8,28.9,00.0,38.9,31.6,12.8,0000.0,0007.20,0003.38,0002.24
2021-10-18 15:27:00,,0822.4,4.99,0.00,29.8,28.9,00.0,38.9,31.6,12.5,0000.0,0007.74,0003.42,0002.24
2021-10-18 15:28:00,,0822.3,4.99,0.00,29.8,28.9,00.0,38.9,31.6,12.4,0000.0,0008.15,0003.43,0002.24
2021-10-18 15:29:00,,0822.3,5.00,0.00,29.8,28.9,00.0,38.9,31.6,12.5,0000.0,0008.64,0003.46,0002.25
2021-10-18 15:30:00,,0822.3,5.00,0.00,29.9,28.9,00.0,39.0,31.6,12.7,0000.0,0008.84,0003.45,0002.25
2021-10-18 15:31:00,,0822.3,5.00,0.00,29.8,28.9,00.0,38.9,31.6,12.4,0000.0,0008.70,0003.46,0002.29
2021-10-18 15:32:00,,0822.3,5.00,0.00,29.8,28.9,00.0,38.9,31.6,12.1,0000.0,0009.26,0003.49,0002.35
2021-10-18 15:33:00,,0822.3,5.00,0.00,29.9,28.9,00.0,38.9,31.6,11.7,0000.0,0009.47,0003.54,0002.46
2021-10-18 15:34:00,,0822.3,4.99,0.00,29.9,28.9,00.0,38.9,31.6,11.5,0000.0,0010.39,0003.62,0002.57
2021-10-18 15:35:00,,0822.3,5.01,0.00,29.9,28.9,00.0,38.9,31.6,11.6,0000.0,0011.60,0003.66,0002.65
2021-10-18 15:36:00,,0822.3,5.01,0.00,29.9,29.0,00.0,38.9,31.6,11.6,0000.0,0011.80,0003.74,0002.76
2021-10-18 15:37:00,,0822.3,5.00,0.00,29.9,29.0,00.0,39.0,31.6,11.3,0000.0,0011.96,0003.82,0002.85
2021-10-18 15:38:00,,0822.3,4.99,0.00,29.9,28.9,00.0,39.0,31.6,11.1,0000.0,0012.26,0003.86,0002.94
2021-10-18 15:39:00,,0822.3,4.99,0.00,29.9,28.9,00.0,39.0,31.6,11.3,0000.0,0012.11,0003.95,0003.02
2021-10-18 15:40:00,,0822.3,5.01,0.00,29.9,29.0,00.0,39.0,31.6,11.5,0000.0,0012.50,0004.01,0003.11
2021-10-18 15:41:00,,0822.3,5.01,0.00,29.9,29.0,00.0,39.0,31.6,11.6,0000.0,0013.06,0004.05,0003.15
2021-10-18 15:42:00,,0822.4,5.00,0.00,29.9,29.0,00.0,39.0,31.6,11.7,0000.0,0013.74,0004.10,0003.19
2021-10-18 15:43:00,,0822.4,5.01,0.00,29.9,29.0,00.0,39.0,31.6,11.7,0000.0,0013.67,0004.14,0003.20
2021-10-18 15:44:00,,0822.3,4.99,0.00,29.9,29.0,00.0,39.0,31.6,11.6,0000.0,0013.89,0004.18,0003.20
2021-10-18 15:45:00,,0822.4,4.99,0.00,29.9,29.0,00.0,39.0,31.6,11.7,0000.0,0012.93,0004.20,0003.20
2021-10-18 15:46:00,,0822.4,5.00,0.00,29.9,29.0,00.0,39.0,31.7,11.7,0000.0,0011.93,0004.18,0003.21
2021-10-18 15:47:00,,0822.4,5.00,0.00,29.9,29.0,00.0,39.0,31.6,11.7,0000.0,0012.00,0004.18,0003.21
2021-10-18 15:48:00,,0822.4,5.01,0.00,29.9,29.0,00.0,39.0,31.7,11.8,0000.0,0012.04,0004.16,0003.21
2021-10-18 15:49:00,,0822.3,5.01,0.00,29.9,29.0,00.0,39.0,31.6,11.9,0000.0,0011.50,0004.14,0003.22
2021-10-18 15:50:00,,0822.4,5.00,0.00,29.9,29.0,00.0,39.0,31.7,12.0,0000.0,0011.49,0004.15,0003.24
2021-10-18 15:51:00,,0822.4,5.00,0.00,29.9,29.0,00.0,39.0,31.7,12.0,0000.0,0010.94,0004.11,0003.24
2021-10-18 15:52:00,,0822.4,5.00,0.00,29.9,29.0,00.0,39.0,31.7,11.9,0000.0,0010.55,0004.10,0003.24
2021-10-18 15:53:00,,0822.3,5.00,0.00,29.9,29.0,00.0,39.0,31.7,11.8,0000.0,0009.75,0004.06,0003.25
2021-10-18 15:54:00,,0822.3,5.00,0.00,29.9,29.0,00.0,39.0,31.7,11.8,0000.0,0010.00,0004.07,0003.26
2021-10-18 15:55:00,,0822.2,4.99,0.00,29.9,29.0,00.0,39.0,31.7,11.4,0000.0,0009.99,0004.05,0003.26
2021-10-18 15:56:00,,0822.2,4.99,0.00,29.9,29.0,00.0,39.0,31.7,11.2,0000.0,0009.95,0004.02,0003.26
2021-10-18 15:57:00,,0822.2,5.00,0.00,29.9,29.1,00.0,39.0,31.6,11.0,0000.0,0010.27,0004.00,0003.25
2021-10-18 15:58:00,,0822.1,5.00,0.00,29.9,29.1,00.0,39.0,31.6,11.0,0000.0,0010.45,0004.00,0003.24
2021-10-18 15:59:00,,0822.1,5.00,0.00,29.9,29.1,00.0,39.0,31.7,10.9,0000.0,0010.48,0003.98,0003.25
